• In Latvia
  • List of Countries
  • For 7 days
  • Water Temperature
  • Satellite Maps
  • Weather Map
  • Weather Widgets
  • user-avatar
    Login

    Hourly Weather Daugavpils

    Today, 22 October, Sunday

    Time Temperature Precipitation Wind Pressure Humidity
    00:00 -2°C° 0 mm 2 mps 756 mmHg 90%
    01:00 0°C° 0 mm 1 mps 756 mmHg 90%
    02:00 0°C° 0 mm 1 mps 756 mmHg 89%
    03:00 0°C° 0 mm 1 mps 756 mmHg 88%
    04:00 0°C° 0 mm 1 mps 756 mmHg 87%
    05:00 0°C° 0 mm 1 mps 756 mmHg 86%
    06:00 0°C° 0 mm 1 mps 756 mmHg 83%
    07:00 0°C° 0 mm 1 mps 756 mmHg 81%
    08:00 0°C° 0 mm 1 mps 756 mmHg 78%
    09:00 +2°C° 0 mm 1 mps 756 mmHg 70%
    10:00 +4°C° 0 mm 1 mps 756 mmHg 62%
    11:00 +5°C° 0 mm 1 mps 755 mmHg 54%
    12:00 +6°C° 0 mm 1 mps 755 mmHg 52%
    13:00 +6°C° 0 mm 1 mps 755 mmHg 49%
    14:00 +7°C° 0 mm 1 mps 754 mmHg 47%
    15:00 +5°C° 0 mm 1 mps 754 mmHg 53%
    16:00 +4°C° 0 mm 1 mps 754 mmHg 59%
    17:00 +3°C° 0 mm 1 mps 754 mmHg 65%
    18:00 +2°C° 0 mm 1 mps 754 mmHg 67%
    19:00 +2°C° 0 mm 1 mps 754 mmHg 69%
    20:00 +1°C° 0 mm 1 mps 754 mmHg 72%
    21:00 +1°C° 0 mm 1 mps 754 mmHg 73%
    22:00 +1°C° 0 mm 1 mps 754 mmHg 74%
    23:00 +1°C° 0 mm 1 mps 754 mmHg 76%

    Tomorrow, 23 October, Monday

    Time Temperature Precipitation Wind Pressure Humidity
    00:00 +1°C° 0 mm 1 mps 754 mmHg 76%
    01:00 +1°C° 0 mm 1 mps 754 mmHg 77%
    02:00 +1°C° 0 mm 1 mps 754 mmHg 77%
    03:00 +1°C° 0 mm 1 mps 754 mmHg 77%
    04:00 +1°C° 0 mm 1 mps 754 mmHg 77%
    05:00 -1°C° 0 mm 2 mps 753 mmHg 77%
    06:00 -1°C° 0 mm 2 mps 754 mmHg 77%
    07:00 -1°C° 0 mm 2 mps 754 mmHg 76%
    08:00 -1°C° 0 mm 2 mps 754 mmHg 75%
    09:00 +1°C° 0 mm 2 mps 754 mmHg 70%
    10:00 +2°C° 0 mm 3 mps 754 mmHg 65%
    11:00 +3°C° 0 mm 3 mps 755 mmHg 61%
    12:00 +3°C° 0 mm 3 mps 755 mmHg 60%
    13:00 +3°C° 0 mm 3 mps 755 mmHg 58%
    14:00 +4°C° 0 mm 3 mps 755 mmHg 57%
    15:00 +3°C° 0 mm 3 mps 755 mmHg 62%
    16:00 +2°C° 0 mm 3 mps 755 mmHg 67%
    17:00 +1°C° 0 mm 2 mps 756 mmHg 73%
    18:00 0°C° 0 mm 3 mps 756 mmHg 75%
    19:00 -1°C° 0 mm 3 mps 757 mmHg 77%
    20:00 -1°C° 0 mm 3 mps 757 mmHg 80%
    21:00 -1°C° 0 mm 3 mps 757 mmHg 81%
    22:00 -2°C° 0 mm 3 mps 758 mmHg 83%
    23:00 -2°C° 0 mm 3 mps 758 mmHg 84%

    Day after tomorrow, 24 October, Tuesday

    Time Temperature Precipitation Wind Pressure Humidity
    00:00 -2°C° 0 mm 3 mps 759 mmHg 85%
    01:00 -2°C° 0 mm 3 mps 759 mmHg 86%
    02:00 -2°C° 0 mm 3 mps 759 mmHg 87%
    03:00 -4°C° 0 mm 3 mps 759 mmHg 87%
    04:00 -4°C° 0 mm 3 mps 760 mmHg 87%
    05:00 -3°C° 0 mm 2 mps 760 mmHg 87%
    06:00 -4°C° 0 mm 3 mps 760 mmHg 85%
    07:00 -2°C° 0 mm 3 mps 760 mmHg 83%
    08:00 -2°C° 0 mm 3 mps 761 mmHg 82%
    09:00 -1°C° 0 mm 3 mps 761 mmHg 75%
    10:00 0°C° 0 mm 3 mps 761 mmHg 69%
    11:00 +2°C° 0 mm 3 mps 762 mmHg 62%
    12:00 +2°C° 0 mm 3 mps 762 mmHg 61%
    13:00 +3°C° 0 mm 3 mps 762 mmHg 60%
    14:00 +3°C° 0 mm 3 mps 762 mmHg 58%
    15:00 +2°C° 0 mm 3 mps 762 mmHg 64%
    16:00 +2°C° 0 mm 2 mps 762 mmHg 70%
    17:00 -1°C° 0 mm 2 mps 762 mmHg 77%
    18:00 -1°C° 0 mm 2 mps 762 mmHg 79%
    19:00 -2°C° 0 mm 2 mps 762 mmHg 81%
    20:00 -2°C° 0 mm 2 mps 762 mmHg 83%
    21:00 -2°C° 0 mm 2 mps 763 mmHg 83%
    22:00 -2°C° 0 mm 2 mps 763 mmHg 83%
    23:00 -3°C° 0 mm 2 mps 763 mmHg 84%

    25 October, Wednesday

    Time Temperature Precipitation Wind Pressure Humidity
    00:00 -3°C° 0 mm 2 mps 763 mmHg 84%
    01:00 -3°C° 0 mm 2 mps 763 mmHg 85%
    02:00 -3°C° 0 mm 2 mps 763 mmHg 85%
    03:00 -3°C° 0 mm 2 mps 763 mmHg 86%
    04:00 -3°C° 0 mm 2 mps 763 mmHg 86%
    05:00 -3°C° 0 mm 2 mps 762 mmHg 86%
    06:00 -3°C° 0 mm 2 mps 762 mmHg 85%
    07:00 -2°C° 0 mm 3 mps 762 mmHg 84%
    08:00 -2°C° 0 mm 3 mps 762 mmHg 83%
    09:00 -1°C° 0 mm 3 mps 762 mmHg 75%
    10:00 0°C° 0 mm 4 mps 762 mmHg 68%
    11:00 +1°C° 0 mm 4 mps 762 mmHg 60%
    12:00 +3°C° 0 mm 4 mps 761 mmHg 58%
    13:00 +3°C° 0 mm 4 mps 761 mmHg 57%
    14:00 +4°C° 0 mm 4 mps 760 mmHg 55%
    15:00 +3°C° 0 mm 4 mps 760 mmHg 60%
    16:00 +1°C° 0 mm 4 mps 759 mmHg 65%
    17:00 +1°C° 0 mm 3 mps 759 mmHg 69%
    18:00 0°C° 0 mm 4 mps 758 mmHg 69%
    19:00 0°C° 0 mm 5 mps 757 mmHg 69%
    20:00 0°C° 0 mm 5 mps 756 mmHg 69%
    21:00 0°C° 0.5 mm 5 mps 756 mmHg 70%
    22:00 -1°C° 0.5 mm 6 mps 755 mmHg 71%
    23:00 -1°C° 0.5 mm 6 mps 754 mmHg 72%

    26 October, Thursday

    Time Temperature Precipitation Wind Pressure Humidity
    00:00 -1°C° 1.9 mm 6 mps 753 mmHg 77%
    01:00 -1°C° 1.9 mm 6 mps 752 mmHg 82%
    02:00 -1°C° 1.9 mm 7 mps 751 mmHg 87%
    03:00 -1°C° 1 mm 6 mps 750 mmHg 89%
    04:00 -1°C° 1 mm 6 mps 748 mmHg 90%
    05:00 -1°C° 1 mm 6 mps 747 mmHg 92%
    06:00 +1°C° 0.5 mm 6 mps 747 mmHg 93%
    07:00 +1°C° 0.5 mm 5 mps 746 mmHg 95%
    08:00 +1°C° 0.5 mm 5 mps 746 mmHg 96%
    09:00 +3°C° 0.4 mm 4 mps 746 mmHg 96%
    10:00 +4°C° 0.4 mm 4 mps 746 mmHg 96%
    11:00 +5°C° 0.4 mm 4 mps 746 mmHg 96%
    12:00 +6°C° 0 mm 4 mps 745 mmHg 94%
    13:00 +7°C° 0 mm 3 mps 745 mmHg 93%
    14:00 +8°C° 0 mm 3 mps 745 mmHg 91%
    15:00 +7°C° 0.1 mm 3 mps 745 mmHg 92%
    16:00 +7°C° 0.1 mm 3 mps 744 mmHg 93%
    17:00 +7°C° 0.1 mm 3 mps 744 mmHg 94%
    18:00 +7°C° 0.1 mm 3 mps 744 mmHg 93%
    19:00 +6°C° 0.1 mm 4 mps 744 mmHg 93%
    20:00 +6°C° 0.1 mm 4 mps 744 mmHg 92%
    21:00 +6°C° 0.1 mm 4 mps 743 mmHg 92%
    22:00 +5°C° 0.1 mm 4 mps 743 mmHg 92%
    23:00 +5°C° 0.1 mm 4 mps 743 mmHg 92%

    27 October, Friday

    Time Temperature Precipitation Wind Pressure Humidity
    00:00 +5°C° 0.1 mm 4 mps 743 mmHg 92%
    01:00 +5°C° 0.1 mm 4 mps 743 mmHg 93%
    02:00 +4°C° 0.1 mm 4 mps 742 mmHg 93%
    03:00 +4°C° 0 mm 4 mps 742 mmHg 93%
    04:00 +4°C° 0 mm 4 mps 742 mmHg 93%
    05:00 +3°C° 0 mm 4 mps 742 mmHg 93%
    06:00 +3°C° 0 mm 4 mps 741 mmHg 93%
    07:00 +3°C° 0 mm 4 mps 741 mmHg 94%
    08:00 +3°C° 0 mm 4 mps 741 mmHg 94%
    09:00 +4°C° 0 mm 4 mps 741 mmHg 90%
    10:00 +5°C° 0 mm 4 mps 741 mmHg 87%
    11:00 +5°C° 0 mm 4 mps 741 mmHg 83%
    12:00 +5°C° 0.1 mm 4 mps 741 mmHg 84%
    13:00 +7°C° 0.1 mm 3 mps 740 mmHg 84%
    14:00 +7°C° 0.1 mm 3 mps 740 mmHg 84%
    15:00 +6°C° 0 mm 2 mps 739 mmHg 88%
    16:00 +7°C° 0 mm 1 mps 739 mmHg 91%
    17:00 +6°C° 0 mm 1 mps 739 mmHg 94%
    18:00 +6°C° 0.1 mm 1 mps 738 mmHg 95%
    19:00 +6°C° 0.1 mm 1 mps 738 mmHg 96%
    20:00 +6°C° 0.1 mm 1 mps 738 mmHg 96%
    21:00 +6°C° 0.3 mm 1 mps 737 mmHg 96%
    22:00 +6°C° 0.3 mm 1 mps 737 mmHg 96%
    23:00 +6°C° 0.3 mm 1 mps 737 mmHg 96%
    Show more